Pond Inlet,

1:36 PM EST on December 07, 2016 (GMT -0500)
Pond Inlet

Weather History for CYIO - January, 2013

Change the Weather History Date:

Wednesday, January 9, 2013

  Actual Average Record
Temperature  
Mean Temperature -27 °F -  
Max Temperature -23 °F -20 °F 5 °F (1999)
Min Temperature -31 °F -29 °F -41 °F (2001)
Degree Days  
Heating Degree Days 92    
Moisture  
Dew Point -34 °F    
Average Humidity 64    
Maximum Humidity 69    
Minimum Humidity 46    
Precipitation  
Precipitation 0.00 in - - ()
Sea Level Pressure  
Sea Level Pressure 29.49 in    
Wind  
Wind Speed 2 mph ()    
Max Wind Speed 4 mph    
Max Gust Speed -    
Visibility 5.7 miles    
Events Snow    
Averages and records for this station are not official NWS values.
T = Trace of Precipitation, MM = Missing Value Source: Averaged Metar Reports

Daily Weather History Graph

Daily Weather History Graph

Search for Another Location

Airport or City:

Trip Planner

Search our weather history database for the weather conditions in past years. The results will help you decide how hot, cold, wet, or windy it might be!

Date:

Astronomy

Dec. 31, 1969 Rise Set
Actual Time Sun does not rise Sun does not rise
Civil Twilight 10:45 AM EST 1:53 PM EST
Nautical Twilight 8:30 AM EST 4:08 PM EST
Astronomical Twilight 7:00 AM EST 5:39 PM EST
Moon No Moon Rise No Moon Set
Length of Visible Light 3h 07m
Length of Day
0h 00m
Waning Crescent, 6% of the Moon is Illuminated
Jan 9
Waning Crescent
Jan 11
New
Jan 18
First Quarter
Jan 26
Full
Feb 3
Last Quarter

Hourly Weather History & Observations

Time (EST) Temp. Windchill Dew Point Humidity Pressure Visibility Wind Dir Wind Speed Gust Speed Precip Events Conditions
12:00 AM -29.2 °F - -36.4 °F 68% 29.63 in 9.0 mi SSW 2.3 mph - N/A   Clear
1:00 AM -30 °F - -37 °F 50% 29.64 in 9 mi SSW 2.3 mph - -  
1:00 AM -29.2 °F -41.2 °F -38.2 °F 62% 29.64 in 9.0 mi SSW 3.5 mph - N/A   Clear
2:00 AM -29.2 °F - -36.4 °F 68% 29.64 in 9.0 mi SSW 2.3 mph - N/A   Clear
3:00 AM -29.2 °F - -36.4 °F 68% 29.63 in 9.0 mi South 2.3 mph - N/A   Clear
4:00 AM -29 °F - -37 °F 47% 29.63 in 9 mi SSW 3.5 mph - -  
4:00 AM -29.2 °F -41.2 °F -36.4 °F 68% 29.63 in 9.0 mi SSW 3.5 mph - N/A   Clear
5:00 AM -31.0 °F - -38.2 °F 68% 29.64 in 9.0 mi SSW 2.3 mph - N/A   Partly Cloudy
6:00 AM -31.0 °F - -38.2 °F 68% 29.65 in 9.0 mi Calm Calm - N/A   Clear
7:00 AM -30 °F - -38 °F 46% 29.64 in 9 mi SSW 2.3 mph - -  
8:00 AM -27.4 °F -39.2 °F -34.6 °F 69% 29.63 in 9.0 mi SSW 3.5 mph - N/A   Clear
9:00 AM -29.2 °F - -36.4 °F 68% 29.63 in 9.0 mi SSW 2.3 mph - N/A   Partly Cloudy
10:00 AM -29 °F - -36 °F 50% 29.62 in 9 mi SSW 2.3 mph - -  
10:00 AM -29.2 °F - -36.4 °F 68% 29.62 in 9.0 mi SSW 2.3 mph - N/A   Mostly Cloudy
11:00 AM -27.4 °F - -34.6 °F 69% 29.61 in 9.0 mi Calm Calm - N/A   Overcast
12:00 PM -25.6 °F - -32.8 °F 69% 29.59 in 9.0 mi SW 2.3 mph - N/A   Overcast
1:00 PM -30 °F - -38 °F 46% 29.57 in 9 mi SSW 2.3 mph - -  
1:00 PM -29.2 °F - -38.2 °F 62% 29.57 in 9.0 mi SW 2.3 mph - N/A   Partly Cloudy
2:00 PM -29.2 °F - -38.2 °F 62% 29.55 in 9.0 mi SSW 2.3 mph - N/A   Partly Cloudy
3:00 PM -27.4 °F - -36.4 °F 62% 29.54 in 9.0 mi SSW 2.3 mph - N/A   Scattered Clouds
4:00 PM -26 °F - -34 °F 48% 29.52 in 9 mi Calm Calm - -   Overcast
4:00 PM -25.6 °F - -34.6 °F 63% 29.52 in 9.0 mi Calm Calm - N/A   Overcast
5:00 PM -27.4 °F - -36.4 °F 62% 29.49 in 6.0 mi SSW 2.3 mph - N/A   Mostly Cloudy
6:00 PM -25.6 °F - -34.6 °F 63% 29.47 in 9.0 mi SSW 2.3 mph - N/A   Overcast
6:21 PM -25.6 °F - -32.8 °F 69% 29.43 in 6.0 mi SSW 2.3 mph - N/A   Mostly Cloudy
6:30 PM -25.6 °F - -32.8 °F 69% 29.42 in 5.0 mi North - - N/A   Mostly Cloudy
7:00 PM -24 °F - -32 °F 49% 29.44 in 6 mi SSW 2.3 mph - -  
7:00 PM -23.8 °F - -31.0 °F 69% 29.44 in 6.0 mi SSW 2.3 mph - N/A   Unknown
7:10 PM -23.8 °F - -31.0 °F 69% 29.40 in 3.5 mi SSW 2.3 mph - N/A   Overcast
7:21 PM -23.8 °F - -31.0 °F 69% 29.40 in 3.0 mi SW 2.3 mph - N/A   Overcast
7:32 PM -25.6 °F -37.1 °F -32.8 °F 69% 29.40 in 2.5 mi SW 3.5 mph - N/A   Overcast
7:54 PM -25.6 °F - -32.8 °F 69% 29.39 in 1.5 mi SW 2.3 mph - N/A   Overcast
8:00 PM -25.6 °F - -32.8 °F 69% 29.42 in 1.6 mi SW 2.3 mph - N/A   Overcast
9:00 PM -23.8 °F - -31.0 °F 69% 29.41 in 2.1 mi SSW 2.3 mph - N/A   Overcast
9:25 PM -23.8 °F - -31.0 °F 69% 29.36 in 1.4 mi SSW 2.3 mph - N/A   Overcast
9:40 PM -23.8 °F -35.0 °F -31.0 °F 69% 29.36 in 1.1 mi SW 3.5 mph - N/A Snow Light Snow
9:50 PM -23.8 °F -35.0 °F -31.0 °F 69% 29.35 in 1.0 mi SW 3.5 mph - N/A Snow Light Snow
9:58 PM -23.8 °F -35.0 °F -31.0 °F 69% 29.35 in 1.0 mi SW 3.5 mph - N/A Snow Light Snow
10:00 PM -24 °F - -32 °F 51% 29.39 in 1 mi SW 3.5 mph - - Snow Light Snow
10:00 PM -23.8 °F -35.0 °F -31.0 °F 69% 29.39 in 1.0 mi SW 3.5 mph - N/A Snow Light Snow
10:18 PM -23.8 °F -35.0 °F -31.0 °F 69% 29.35 in 1.5 mi SW 3.5 mph - N/A Snow Light Snow
10:21 PM -23.8 °F -35.0 °F -31.0 °F 69% 29.35 in 1.8 mi SW 3.5 mph - N/A   Unknown
10:32 PM -23.8 °F - -31.0 °F 69% 29.34 in 1.4 mi SSW 2.3 mph - N/A   Unknown
10:40 PM -23.8 °F - -31.0 °F 69% 29.34 in 1.1 mi SW 2.3 mph - N/A   Unknown
10:58 PM -23.8 °F - -31.0 °F 69% 29.33 in 2.1 mi SSW 2.3 mph - N/A   Unknown
11:00 PM -23.8 °F - -31.0 °F 69% 29.37 in 2.2 mi SSW 2.3 mph - N/A   Unknown
11:15 PM -23.8 °F -35.0 °F -31.0 °F 69% 29.32 in 3.0 mi SSW 3.5 mph - N/A   Overcast
11:33 PM -23.8 °F - -31.0 °F 69% 29.32 in 3.5 mi SSW 2.3 mph - N/A   Overcast